Location: Libas
(9.8833°N, 125.9833°E)
Time: 21:55:38
(UTC+00:00)

Hubble Space Telescope - Visible Passes

Search period start: 22 January 2021 00:00
Search period end: 01 February 2021 00:00
Orbit: 536 x 539 km, 28.5° (Epoch: 22 January)

Date Brightness Start Highest point End Pass type
(mag) Time Alt. Az. Time Alt. Az. Time Alt. Az.
25 Jan 3.2 10:56:53 10° N 10:57:10 11° N 10:57:10 11° N visible
26 Jan 2.8 10:45:25 10° NNW 10:47:20 14° NNE 10:47:20 14° NNE visible
27 Jan 2.4 10:34:09 10° NNW 10:36:59 18° NNE 10:37:35 17° NNE visible
28 Jan 2.2 10:22:58 10° NNW 10:26:15 22° NNE 10:27:59 17° ENE visible
29 Jan 1.8 10:11:53 10° NW 10:15:29 29° NNE 10:18:30 13° E visible
29 Jan 3.4 11:52:41 10° WNW 11:53:52 18° W 11:53:52 18° W visible
30 Jan 1.4 10:00:51 10° NW 10:04:43 38° NNE 10:08:34 10° E visible
30 Jan 2.7 11:42:04 10° W 11:44:32 28° WSW 11:44:32 28° WSW visible
31 Jan 2.7 11:31:35 10° W 11:35:00 25° SSW 11:35:19 25° SSW visible
